Back to catalog

COSMOS 1285 DEB

LostHEO
NORAD 28561·DEBRIS·🇷🇺 Russia

Launched Aug 4, 1981 from Plesetsk Cosmodrome

Loading…

Next Passes (next 24 hours)

TLE

StaleSource: Space-Track

Epoch: Apr 11, 2011, 20:56 UTC

1 28561U 81071V   11101.87240564  .00000669  00000-0  10000-3 0  9994
2 28561  68.1054  56.8763 6143652 144.1951 279.4093  1.97830214 57130

Track COSMOS 1285 DEB in real time with AllMySat

Download on the App Store